Location: Filler
(36.7551°N, 30.4456°E)
Time: 15:31:07
(UTC+00:00)

NOSS 2-2 (E) - Pass Details

Date: 21 September 2024
Orbit: 399 x 1743 km, 63.3° (Epoch: 11 October)

Event Time Altitude Azimuth Distance (km) Brightness Sun altitude
Exits shadow 01:47:22 37° 116° (ESE) 701 4.1 -24.0°
Drops below altitude 10° 01:50:15 10° 50° (NE) 1,479 6.5 -23.4°
Sets 01:52:15 0° 41° (NE) 2,314 7.5 -23.1°
